GW7144 Weather Reports


Display with metric or nautical units.
time (UTC)temp
F
wind
direction
speed
MPH
gust
MPH
rain 1hr
in
rain 24hr
in
rain mn
in
humidity
%
barometer
mb
20260502180752 66 31 1.0 5.0 0.00 0.00 0.00 34 1020.4
20260502163731 64 289 6.0 6.0 0.00 0.00 0.00 36 1021.1
20260502162228 63 63 2.0 4.0 0.00 0.00 0.00 36 1021.1
20260502160726 63 320 2.0 5.0 0.00 0.00 0.00 36 1021.2
20260502152223 62 269 2.0 3.0 0.00 0.00 0.00 41 1020.9
20260502150721 61 110 2.0 4.0 0.00 0.00 0.00 45 1020.9
20260502130652 48 98 1.0 2.0 0.00 0.00 0.00 79 1020.3
20260502123647 45 116 0.0 2.0 0.00 0.00 0.00 86 1020.0
20260502122143 45 92 1.0 2.0 0.00 0.00 0.00 86 1020.0
20260502120641 44 280 0.0 2.0 0.00 0.00 0.00 87 1019.6
20260502115137 43 132 0.0 2.0 0.00 0.00 0.00 89 1019.3
20260502113634 43 122 1.0 2.0 0.00 0.00 0.00 90 1019.4
20260502112133 42 115 2.0 3.0 0.00 0.00 0.00 91 1019.0
20260502110631 43 107 0.0 2.0 0.00 0.00 0.00 91 1018.9
20260502105128 43 124 0.0 2.0 0.00 0.00 0.00 91 1018.6
20260502103626 44 142 2.0 2.0 0.00 0.00 0.00 91 1018.5
20260502102123 44 48 0.0 2.0 0.00 0.00 0.00 91 1018.5
20260502100623 44 153 1.0 2.0 0.00 0.00 0.00 91 1018.4
20260502090615 45 119 0.0 3.0 0.00 0.00 0.00 91 1018.0
20260502070553 47 62 0.0 2.0 0.00 0.00 0.00 84 1017.8
20260502065052 48 98 1.0 2.0 0.00 0.00 0.00 84 1017.8
20260502063551 48 95 0.0 2.0 0.00 0.00 0.00 83 1017.7
20260502062049 48 99 1.0 2.0 0.00 0.00 0.00 85 1017.8
20260502060545 48 109 1.0 2.0 0.00 0.00 0.00 87 1017.8
20260502055044 48 119 0.0 2.0 0.00 0.00 0.00 86 1018.1
20260502053541 48 123 1.0 2.0 0.00 0.00 0.00 88 1018.0
20260502052040 48 96 1.0 2.0 0.00 0.00 0.00 87 1018.0
20260502050537 48 93 1.0 2.0 0.00 0.00 0.00 86 1017.9
20260502045034 50 107 1.0 2.0 0.00 0.00 0.00 81 1017.8
20260502043530 51 117 2.0 2.0 0.00 0.00 0.00 81 1017.7
20260502042025 50 124 0.0 2.0 0.00 0.00 0.00 83 1017.9
20260502040522 51 123 1.0 2.0 0.00 0.00 0.00 79 1017.9
20260502035018 52 119 0.0 1.0 0.00 0.00 0.00 72 1017.9
20260502033518 52 130 0.0 1.0 0.00 0.00 0.00 75 1018.0
20260502032014 51 104 0.0 2.0 0.00 0.00 0.00 76 1018.0
20260502030514 51 114 0.0 1.0 0.00 0.00 0.00 78 1018.1
20260502025012 51 113 2.0 2.0 0.00 0.00 0.00 76 1018.0
20260502023511 52 111 2.0 2.0 0.00 0.00 0.00 68 1017.8
20260502022008 53 105 2.0 2.0 0.00 0.00 0.00 65 1017.5
20260502020506 53 107 2.0 2.0 0.00 0.00 0.00 68 1017.5
20260502015002 54 101 0.0 2.0 0.00 0.00 0.00 62 1017.3
20260502013457 55 117 1.0 1.0 0.00 0.00 0.00 54 1017.1
20260502011955 57 99 2.0 2.0 0.00 0.00 0.00 58 1016.9
20260502010450 58 116 2.0 2.0 0.00 0.00 0.00 54 1016.7
20260502004948 60 112 1.0 2.0 0.00 0.00 0.00 51 1016.5
20260502003443 64 106 1.0 2.0 0.00 0.00 0.00 46 1016.4
20260502001940 68 100 1.0 3.0 0.00 0.00 0.00 35 1016.2
20260502000439 70 36 0.0 2.0 0.00 0.00 0.00 31 1016.0
20260501234938 70 113 0.0 2.0 0.00 0.00 0.00 34 1016.3
20260501233436 71 216 2.0 2.0 0.00 0.00 0.00 27 1016.3
20260501231932 71 13 2.0 4.0 0.00 0.00 0.00 27 1016.0
20260501230427 70 79 2.0 6.0 0.00 0.00 0.00 27 1016.0
20260501224923 71 138 0.0 3.0 0.00 0.00 0.00 31 1016.0
20260501223420 71 114 2.0 4.0 0.00 0.00 0.00 28 1016.0
20260501221915 72 120 0.0 2.0 0.00 0.00 0.00 33 1015.9
20260501220414 72 62 1.0 4.0 0.00 0.00 0.00 28 1016.1
20260501214913 73 307 2.0 4.0 0.00 0.00 0.00 28 1016.2
20260501213413 73 52 2.0 4.0 0.00 0.00 0.00 28 1016.4
20260501211908 72 3 2.0 6.0 0.00 0.00 0.00 28 1016.5
20260501210406 71 10 2.0 3.0 0.00 0.00 0.00 28 1016.8
20260501204902 70 357 0.0 5.0 0.00 0.00 0.00 29 1017.1
20260501203357 72 122 2.0 4.0 0.00 0.00 0.00 25 1017.5
20260501201854 70 320 0.0 2.0 0.00 0.00 0.00 31 1017.9
20260501200350 69 0 4.0 4.0 0.00 0.00 0.00 28 1018.0
20260501194846 69 327 1.0 5.0 0.00 0.00 0.00 30 1018.2
20260501193343 70 327 1.0 4.0 0.00 0.00 0.00 26 1018.8
20260501191839 69 290 1.0 1.0 0.00 0.00 0.00 35 1018.5
20260501190335 70 223 2.0 6.0 0.00 0.00 0.00 27 1018.9
20260501184834 70 58 0.0 5.0 0.00 0.00 0.00 26 1018.9
20260501183330 70 112 0.0 3.0 0.00 0.00 0.00 32 1018.6
20260501181825 69 107 2.0 2.0 0.00 0.00 0.00 27 1019.0